Regional Weather Roundup
Issued by NWS

Home | Current Version | Previous Version | Graphics & Text | Print | Product List | Glossary On
Versions: 1 2 3 4 5 6 7 8 9 10 11 12 13 14 15 16 17 18 19 20 21 22 23 24 25 26 27 28 29 30 31 32 33 34 35 36 37 38 39 40 41 42 43 44 45 46 47 48 49 50
000
ASUS43 KDMX 210101
RWRIA

WEATHER ROUNDUP FOR IOWA
NATIONAL WEATHER SERVICE DES MOINES IA
700 PM CST TUE FEB 20 2018

NOTE: "FAIR" INDICATES FEW OR NO CLOUDS BELOW 12,000 FEET WITH NO
SIGNIFICANT WEATHER AND/OR OBSTRUCTIONS TO VISIBILITY.

* - THESE STATIONS ARE NOT NWS STATIONS...THUS NOT UNDER NWS
QUALITY CONTROL.  THEY ALSO DO NOT REPORT WEATHER SUCH
AS PRECIPITATION OR FOG.

IAZ001>003-012>014-020>022-031>034-043>046-210200-
   NORTHWEST IOWA

CITY           SKY/WX    TMP DP  RH WIND       PRES   REMARKS
CARROLL *      MOCLDY    16  10  79 NW18G24   30.28R WCI  -1
CHEROKEE *     FAIR      12   8  82 NW7       30.31R WCI   2
DENISON *      MOCLDY    14   9  79 NW14      30.31R WCI  -1
LE MARS *      FAIR      10   5  79 NW10      30.33R WCI  -3
ORANGE CITY *  FAIR       9   7  92 NW10      30.30R WCI  -6
SHELDON *      FAIR       9   5  85 NW12      30.28R WCI  -6
SIOUX CITY     FAIR      11   4  73 NW18      30.34R WCI  -7
SPENCER        MIX PCPN  12   6  77 NW14      30.28R WCI  -3
STORM LAKE *   MOCLDY    12   7  79 NW17      30.27R WCI  -5
$$

IAZ055>058-069>071-079>083-090>094-210200-
   SOUTHWEST IOWA

CITY           SKY/WX    TMP DP  RH WIND       PRES   REMARKS
ATLANTIC *     FLURRIES  16  12  86 NW18G24   30.28R WCI  -1
AUDUBON *      FAIR      16  10  79 NW13G20   30.27R WCI   2
CLARINDA *     CLOUDY    19  14  79 N16       30.32R WCI   5
COUNCIL BLFS * MOCLDY    16  12  86 NW16      30.29R WCI   0
CRESTON *      CLOUDY    18  12  79 N13G22    30.26R WCI   4
HARLAN  *      FAIR      16  12  86 N20G26    30.32R WCI  -1
LAMONI         MOCLDY    20  15  81 NW12G22   30.24R WCI   8
RED OAK *      CLOUDY    18  12  79 N14       30.30R WCI   4
SHENANDOAH *   MOCLDY    18  12  79 N15G21    30.32R WCI   3
$$

IAZ047>049-059>061-072>074-084-210200-
   CENTRAL IOWA

CITY           SKY/WX    TMP DP  RH WIND       PRES   REMARKS
AMES           MOCLDY    19  13  77 NW15      30.26R WCI   5
ANKENY *       CLOUDY    19  14  79 NW10G18   30.27R WCI   8
BOONE *        MOCLDY    18  12  79 MISG      30.24R
CHARITON *     CLOUDY    21  18  86 NW18      30.23R WCI   6
DES MOINES     FLURRIES  19  13  77 NW14      30.26R WCI   6
GRINNELL*      CLOUDY    22  18  85 NW13      30.22R WCI  10
KNOXVILLE *    CLOUDY    21  16  79 NW14G21   30.22R WCI   8
MARSHALLTOWN   CLOUDY    20  15  81 NW16      30.23R WCI   6
NEWTON *       CLOUDY    21  18  86 NW14G20   30.24R WCI   8
PELLA *        MOCLDY    22  17  81 NW13      30.24S WCI  10
$$

IAZ004>006-015-016-023>025-035-036-210200-
   NORTH CENTRAL IOWA

CITY           SKY/WX    TMP DP  RH WIND       PRES   REMARKS
CLARION *      CLOUDY    16  16 100 NW20G25   30.24R WCI  -1
ESTHERVILLE    FAIR      11   5  77 NW14      30.26R WCI  -5
FORT DODGE *   FAIR      15  10  80 NW7       30.27R WCI   5
MASON CITY     FAIR      13   7  77 NW22      30.23R WCI  -6
FOREST CITY *  FAIR      14  10  85 NW10      30.23R WCI   1
WEBSTER CITY * FAIR      16  10  79 NW18      30.23R WCI  -1
IOWA FALLS *   FAIR      18  13  81 NW14      30.24R WCI   4
$$

IAZ007>011-017>019-026>030-037>042-050>054-066-210200-
   NORTHEAST IOWA

CITY           SKY/WX    TMP DP  RH WIND       PRES   REMARKS
CEDAR RAPIDS   CLOUDY    24  18  77 NW22G28   30.18R WCI   9
CHARLES CITY * CLOUDY    16  16 100 NW14G22   30.20R WCI   1
CLINTON *      MOCLDY    28  24  85 MISG        N/A
DECORAH *      CLOUDY    19  16  86 W8G17     30.15R WCI   9
DUBUQUE        MOCLDY    26  19  74 NW17      30.13R WCI  13
MONTICELLO *   MOCLDY    25  19  80 NW18G25   30.17R WCI  11
OELWEIN *      FLURRIES  19  19 100 NW17G24   30.19R WCI   4
WATERLOO       CLOUDY    19  13  77 NW16      30.21R WCI   4
$$

IAZ064-065-067-068-078-210200-
   EAST CENTRAL IOWA

CITY           SKY/WX    TMP DP  RH WIND       PRES   REMARKS
DAVENPORT      CLOUDY    29  23  78 NW18      30.15S WCI  16
IOWA CITY      MOCLDY    27  18  69 NW16G22   30.21R WCI  15
MT. PLEASANT * MOCLDY    27  23  86 NW14G20   30.18S WCI  15
MUSCATINE *    FAIR      28  21  74 NW13G23   30.19R WCI  18
QUAD CITIES    CLOUDY    30  24  78 NW16G24   30.14R WCI  19
$$

IAZ062-063-075>077-085>089-095>099-210200-
   SOUTHEAST IOWA

CITY           SKY/WX    TMP DP  RH WIND       PRES   REMARKS
BURLINGTON     MOCLDY    28  22  78 NW13G21   30.16R WCI  17
FAIRFIELD *    CLOUDY    27  21  80 NW17      30.19R WCI  14
FORT MADISON * CLOUDY    28  25  86 NW10      30.18R WCI  19
KEOKUK *       CLOUDY    28  25  86 NW14      30.17R WCI  17
OSKALOOSA *    CLOUDY    23  19  85 NW13      30.22R WCI  11
OTTUMWA        CLOUDY    23  18  81 NW18      30.21R WCI   9
WASHINGTON *   CLOUDY    27  25  93 NW16G25   30.20R WCI  14
$$

ABBREVIATIONS USED IN REMARKS
   TC - TEMPERATURES IN CELSIUS
  WCI - WIND CHILL INDEX
   HX - HEAT INDEX
  VSB - VISIBILITY
$$





USA.gov is the U.S. government's official web portal to all federal, state and local government web resources and services.